GW3424 Weather Reports


Display with metric or nautical units.
time (UTC)temp
F
wind
direction
speed
MPH
gust
MPH
rain 1hr
in
rain 24hr
in
rain mn
in
humidity
%
barometer
mb
20260906025052 93 360 3.0 8.0 0.00 0.00 0.00 32 973.5
20260906024551 93 360 3.0 9.0 0.00 0.00 0.00 32 973.5
20260906024056 93 360 6.0 10.0 0.00 0.00 0.00 32 973.4
20260906023552 93 360 7.0 10.0 0.00 0.00 0.00 32 973.4
20260906023106 93 360 6.0 9.0 0.00 0.00 0.00 32 973.3
20260906022551 93 144 6.0 9.0 0.00 0.00 0.00 32 973.4
20260906022052 93 13 6.0 9.0 0.00 0.00 0.00 32 973.4
20260906021552 94 14 5.0 8.0 0.00 0.00 0.00 32 973.3
20260906021051 94 15 4.0 8.0 0.00 0.00 0.00 32 973.3
20260906020552 94 19 5.0 8.0 0.00 0.00 0.00 32 973.3
20260906020051 94 15 5.0 8.0 0.00 0.00 0.00 32 973.4
20260906015551 94 360 4.0 8.0 0.00 0.00 0.00 31 973.4
20260906015052 95 15 4.0 8.0 0.00 0.00 0.00 31 973.3
20260906014608 95 360 5.0 8.0 0.00 0.00 0.00 32 973.4
20260906014051 95 360 5.0 9.0 0.00 0.00 0.00 32 973.4
20260906013552 95 360 5.0 9.0 0.00 0.00 0.00 32 973.5
20260906013054 96 360 4.0 8.0 0.00 0.00 0.00 31 973.4
20260906012551 96 360 4.0 8.0 0.00 0.00 0.00 31 973.5
20260906012051 96 360 5.0 9.0 0.00 0.00 0.00 31 973.5
20260906011556 96 21 5.0 9.0 0.00 0.00 0.00 31 973.5
20260906011051 96 360 6.0 9.0 0.00 0.00 0.00 30 973.6
20260906010551 96 360 5.0 9.0 0.00 0.00 0.00 30 973.6
20260906010052 96 360 6.0 11.0 0.00 0.00 0.00 30 973.5
20260906005551 97 360 7.0 12.0 0.00 0.00 0.00 30 973.7
20260906005052 97 360 7.0 12.0 0.00 0.00 0.00 29 973.7
20260906004607 97 360 9.0 14.0 0.00 0.00 0.00 29 973.6
20260906004055 97 360 9.0 17.0 0.00 0.00 0.00 29 973.5
20260906003551 97 360 12.0 17.0 0.00 0.00 0.00 29 973.6
20260906003054 98 360 10.0 16.0 0.00 0.00 0.00 29 973.5
20260906002551 98 360 10.0 16.0 0.00 0.00 0.00 29 973.6
20260906002052 98 360 9.0 15.0 0.00 0.00 0.00 28 973.4
20260906001551 98 360 9.0 15.0 0.00 0.00 0.00 28 973.5
20260906001051 98 360 11.0 15.0 0.00 0.00 0.00 28 973.4
20260906000552 98 360 10.0 15.0 0.00 0.00 0.00 28 973.5
20260906000104 98 360 10.0 15.0 0.00 0.00 0.00 28 973.4
20260905235552 98 360 8.0 15.0 0.00 0.00 0.00 28 973.5
20260905235052 98 360 11.0 15.0 0.00 0.00 0.00 28 973.4
20260905234556 98 360 11.0 14.0 0.00 0.00 0.00 28 973.4
20260905234051 99 360 9.0 14.0 0.00 0.00 0.00 28 973.3
20260905233552 99 360 9.0 13.0 0.00 0.00 0.00 27 973.4
20260905233056 99 17 10.0 14.0 0.00 0.00 0.00 27 973.4
20260905232552 99 132 8.0 14.0 0.00 0.00 0.00 27 973.5
20260905232052 99 128 8.0 14.0 0.00 0.00 0.00 26 973.5
20260905231554 100 130 9.0 16.0 0.00 0.00 0.00 27 973.5
20260905231051 100 126 9.0 15.0 0.00 0.00 0.00 26 973.5
20260905230551 100 127 11.0 15.0 0.00 0.00 0.00 26 973.5
20260905230052 100 360 10.0 16.0 0.00 0.00 0.00 26 973.5
20260905225555 100 130 11.0 17.0 0.00 0.00 0.00 26 973.6
20260905225051 99 360 10.0 17.0 0.00 0.00 0.00 26 973.7
20260905224603 99 134 10.0 15.0 0.00 0.00 0.00 27 973.7
20260905224052 99 360 9.0 15.0 0.00 0.00 0.00 27 973.7
20260905223551 99 133 9.0 15.0 0.00 0.00 0.00 27 973.6
20260905223052 98 360 8.0 15.0 0.00 0.00 0.00 27 973.7
20260905222552 98 360 9.0 15.0 0.00 0.00 0.00 27 973.8
20260905222051 98 360 11.0 15.0 0.00 0.00 0.00 27 973.9
20260905221551 98 360 10.0 15.0 0.00 0.00 0.00 26 973.9
20260905221052 98 15 10.0 15.0 0.00 0.00 0.00 26 973.9
20260905220551 98 16 7.0 16.0 0.00 0.00 0.00 27 973.9
20260905220053 98 17 10.0 16.0 0.00 0.00 0.00 27 974.1
20260905215552 98 29 10.0 15.0 0.00 0.00 0.00 27 974.2
20260905215051 98 17 10.0 17.0 0.00 0.00 0.00 27 974.2
20260905214552 98 20 10.0 17.0 0.00 0.00 0.00 27 974.2
20260905214052 98 22 11.0 17.0 0.00 0.00 0.00 26 974.2
20260905213552 99 146 12.0 17.0 0.00 0.00 0.00 26 974.3
20260905213052 99 128 9.0 14.0 0.00 0.00 0.00 26 974.2
20260905212552 99 134 8.0 13.0 0.00 0.00 0.00 27 974.3
20260905212052 99 157 8.0 14.0 0.00 0.00 0.00 26 974.4
20260905211552 99 126 10.0 16.0 0.00 0.00 0.00 26 974.5
20260905211052 99 117 12.0 16.0 0.00 0.00 0.00 26 974.4
20260905210552 99 63 11.0 16.0 0.00 0.00 0.00 26 974.5
20260905210051 99 133 10.0 14.0 0.00 0.00 0.00 26 974.5
20260905205551 99 49 8.0 14.0 0.00 0.00 0.00 26 974.6
20260905205052 99 76 8.0 14.0 0.00 0.00 0.00 26 974.7
20260905204551 100 126 5.0 15.0 0.00 0.00 0.00 25 974.7
20260905204051 101 143 6.0 12.0 0.00 0.00 0.00 25 974.8
20260905203551 102 187 5.0 10.0 0.00 0.00 0.00 24 974.8
20260905203054 101 65 1.0 9.0 0.00 0.00 0.00 25 974.9
20260905202551 100 51 2.0 6.0 0.00 0.00 0.00 25 975.0
20260905202051 100 107 2.0 8.0 0.00 0.00 0.00 26 975.1
20260905201552 100 360 1.0 8.0 0.00 0.00 0.00 28 975.1
20260905201051 99 161 4.0 8.0 0.00 0.00 0.00 28 975.2
20260905200551 98 132 3.0 8.0 0.00 0.00 0.00 28 975.2
20260905200056 99 315 5.0 10.0 0.00 0.00 0.00 28 975.3
20260905195552 99 212 5.0 11.0 0.00 0.00 0.00 29 975.4
20260905195053 98 209 3.0 8.0 0.00 0.00 0.00 29 975.5
20260905194552 98 210 3.0 10.0 0.00 0.00 0.00 30 975.5
20260905194051 98 360 7.0 10.0 0.00 0.00 0.00 29 975.6
20260905193553 99 360 7.0 10.0 0.00 0.00 0.00 30 975.6
20260905193051 99 206 3.0 8.0 0.00 0.00 0.00 29 975.7
20260905192552 99 187 4.0 8.0 0.00 0.00 0.00 30 975.7
20260905192054 99 360 5.0 8.0 0.00 0.00 0.00 30 975.8
20260905191551 98 213 5.0 9.0 0.00 0.00 0.00 30 975.9
20260905191051 98 205 5.0 9.0 0.00 0.00 0.00 31 976.0
20260905190551 98 184 6.0 9.0 0.00 0.00 0.00 31 976.1
20260905185553 97 153 2.0 9.0 0.00 0.00 0.00 31 976.3
20260905185052 96 135 2.0 5.0 0.00 0.00 0.00 32 976.4
20260905184559 96 136 3.0 9.0 0.00 0.00 0.00 32 976.4
20260905184051 96 95 5.0 9.0 0.00 0.00 0.00 32 976.4
20260905183552 97 142 5.0 8.0 0.00 0.00 0.00 31 976.4
20260905183057 97 155 0.0 6.0 0.00 0.00 0.00 31 976.6
20260905182551 97 153 3.0 7.0 0.00 0.00 0.00 32 976.6
20260905182052 97 151 0.0 7.0 0.00 0.00 0.00 32 976.7
20260905181557 97 188 2.0 5.0 0.00 0.00 0.00 32 976.7
20260905181053 97 197 2.0 5.0 0.00 0.00 0.00 32 976.7
20260905180552 96 187 0.0 6.0 0.00 0.00 0.00 32 976.8
20260905180052 96 188 2.0 6.0 0.00 0.00 0.00 33 976.8
20260905175551 96 136 2.0 5.0 0.00 0.00 0.00 33 976.9
20260905175052 96 229 2.0 6.0 0.00 0.00 0.00 34 977.0
20260905174551 95 230 3.0 6.0 0.00 0.00 0.00 34 977.0
20260905174051 95 251 2.0 5.0 0.00 0.00 0.00 34 976.9
20260905173552 95 254 2.0 5.0 0.00 0.00 0.00 35 976.9
20260905173052 94 253 3.0 6.0 0.00 0.00 0.00 35 976.9
20260905172551 94 257 2.0 6.0 0.00 0.00 0.00 35 977.0
20260905172052 94 264 0.0 3.0 0.00 0.00 0.00 36 976.9
20260905171551 93 74 0.0 3.0 0.00 0.00 0.00 36 976.9
20260905171051 93 360 1.0 3.0 0.00 0.00 0.00 36 976.8
20260905170552 93 360 0.0 3.0 0.00 0.00 0.00 36 976.8
20260905170052 93 17 1.0 4.0 0.00 0.00 0.00 36 976.9
20260905165551 92 17 2.0 4.0 0.00 0.00 0.00 36 976.7
20260905165051 92 17 1.0 3.0 0.00 0.00 0.00 36 976.7
20260905164555 91 360 0.0 4.0 0.00 0.00 0.00 36 976.7
20260905164052 91 360 2.0 4.0 0.00 0.00 0.00 37 976.9
20260905163551 91 360 2.0 4.0 0.00 0.00 0.00 37 976.8
20260905163052 91 360 2.0 4.0 0.00 0.00 0.00 37 976.8
20260905162552 91 360 2.0 4.0 0.00 0.00 0.00 37 976.7
20260905162051 90 360 2.0 4.0 0.00 0.00 0.00 37 976.7
20260905161551 90 360 2.0 3.0 0.00 0.00 0.00 40 976.8
20260905161052 90 360 1.0 3.0 0.00 0.00 0.00 39 976.7
20260905160555 90 360 2.0 3.0 0.00 0.00 0.00 39 976.6
20260905160051 89 360 1.0 3.0 0.00 0.00 0.00 39 976.6
20260905155551 89 360 0.0 3.0 0.00 0.00 0.00 40 976.5
20260905155051 89 360 1.0 3.0 0.00 0.00 0.00 40 976.7
20260905154551 89 360 2.0 3.0 0.00 0.00 0.00 42 976.6
20260905154052 89 360 1.0 3.0 0.00 0.00 0.00 41 976.4
20260905153552 89 360 1.0 3.0 0.00 0.00 0.00 41 976.3
20260905153059 88 360 1.0 3.0 0.00 0.00 0.00 42 976.4
20260905152552 88 360 1.0 3.0 0.00 0.00 0.00 43 976.3
20260905152053 88 360 0.0 4.0 0.00 0.00 0.00 43 976.5
20260905151552 87 360 1.0 4.0 0.00 0.00 0.00 43 976.4
20260905151051 87 360 3.0 4.0 0.00 0.00 0.00 43 976.4
20260905150551 86 360 3.0 5.0 0.00 0.00 0.00 44 976.3
20260905150054 86 360 3.0 6.0 0.00 0.00 0.00 45 976.3
20260905145552 85 360 3.0 6.0 0.00 0.00 0.00 46 976.3
20260905145055 85 360 4.0 8.0 0.00 0.00 0.00 46 976.1
20260905144552 85 360 5.0 8.0 0.00 0.00 0.00 46 976.2
20260905144051 84 360 5.0 8.0 0.00 0.00 0.00 47 976.2
20260905143551 85 360 5.0 8.0 0.00 0.00 0.00 46 976.3
20260905143052 85 360 4.0 6.0 0.00 0.00 0.00 46 976.2
20260905142554 85 360 3.0 6.0 0.00 0.00 0.00 45 976.1
20260905142053 86 360 4.0 6.0 0.00 0.00 0.00 44 976.0
20260905141556 86 360 3.0 5.0 0.00 0.00 0.00 44 976.0
20260905141051 85 360 3.0 8.0 0.00 0.00 0.00 44 976.0
20260905140551 85 360 4.0 9.0 0.00 0.00 0.00 43 975.8
20260905140103 85 360 7.0 9.0 0.00 0.00 0.00 43 975.7
20260905135552 85 360 6.0 9.0 0.00 0.00 0.00 44 975.7
20260905135052 85 360 6.0 9.0 0.00 0.00 0.00 44 975.7
20260905134552 84 360 4.0 6.0 0.00 0.00 0.00 44 975.7
20260905134051 84 360 3.0 6.0 0.00 0.00 0.00 44 975.6
20260905133553 84 360 4.0 6.0 0.00 0.00 0.00 44 975.6
20260905133051 84 360 3.0 5.0 0.00 0.00 0.00 44 975.5
20260905132551 84 360 3.0 5.0 0.00 0.00 0.00 43 975.4
20260905132052 84 360 3.0 6.0 0.00 0.00 0.00 43 975.4
20260905131605 84 360 4.0 6.0 0.00 0.00 0.00 43 975.3
20260905131051 84 360 4.0 6.0 0.00 0.00 0.00 43 975.3
20260905130552 84 360 3.0 4.0 0.00 0.00 0.00 43 975.3
20260905130052 84 360 2.0 4.0 0.00 0.00 0.00 43 975.3
20260905125552 85 360 3.0 5.0 0.00 0.00 0.00 43 975.2
20260905125052 85 360 4.0 6.0 0.00 0.00 0.00 42 975.2
20260905124552 84 360 4.0 6.0 0.00 0.00 0.00 43 975.1
20260905124053 84 360 2.0 6.0 0.00 0.00 0.00 43 975.1
20260905123551 84 360 4.0 5.0 0.00 0.00 0.00 43 975.1
20260905123051 84 360 0.0 4.0 0.00 0.00 0.00 43 975.1
20260905122552 84 360 1.0 8.0 0.00 0.00 0.00 43 974.9
20260905122052 84 360 4.0 8.0 0.00 0.00 0.00 42 974.9
20260905121553 85 360 4.0 9.0 0.00 0.00 0.00 41 974.9
20260905121052 86 360 1.0 5.0 0.00 0.00 0.00 41 974.8
20260905120555 86 360 1.0 3.0 0.00 0.00 0.00 41 974.8
20260905120058 86 360 0.0 2.0 0.00 0.00 0.00 40 974.6
20260905115554 87 360 0.0 8.0 0.00 0.00 0.00 40 974.7
20260905115054 87 360 2.0 8.0 0.00 0.00 0.00 40 974.6
20260905114552 87 360 1.0 4.0 0.00 0.00 0.00 39 974.6
20260905114051 87 360 1.0 5.0 0.00 0.00 0.00 38 974.6
20260905113552 87 360 3.0 5.0 0.00 0.00 0.00 39 974.5
20260905113052 87 360 2.0 5.0 0.00 0.00 0.00 39 974.6
20260905112553 87 360 1.0 4.0 0.00 0.00 0.00 39 974.6
20260905112052 87 360 2.0 5.0 0.00 0.00 0.00 39 974.7
20260905111608 87 360 2.0 5.0 0.00 0.00 0.00 39 974.7
20260905111052 87 360 2.0 8.0 0.00 0.00 0.00 40 974.6
20260905110556 87 360 3.0 8.0 0.00 0.00 0.00 40 974.6
20260905110057 87 360 2.0 8.0 0.00 0.00 0.00 39 974.6
20260905105552 87 360 4.0 6.0 0.00 0.00 0.00 40 974.5
20260905105052 87 360 3.0 6.0 0.00 0.00 0.00 40 974.5
20260905104551 87 360 4.0 6.0 0.00 0.00 0.00 40 974.6
20260905104051 87 360 3.0 5.0 0.00 0.00 0.00 39 974.6
20260905103552 88 360 1.0 4.0 0.00 0.00 0.00 39 974.5
20260905103053 88 360 1.0 6.0 0.00 0.00 0.00 39 974.4
20260905102551 88 360 3.0 9.0 0.00 0.00 0.00 39 974.4
20260905102051 89 360 5.0 12.0 0.00 0.00 0.00 37 974.4
20260905101552 89 360 6.0 12.0 0.00 0.00 0.00 37 974.4
20260905101051 89 360 8.0 12.0 0.00 0.00 0.00 37 974.3
20260905100551 89 360 7.0 12.0 0.00 0.00 0.00 37 974.3
20260905100052 89 360 8.0 11.0 0.00 0.00 0.00 37 974.3
20260905095551 89 360 7.0 11.0 0.00 0.00 0.00 37 974.3
20260905095053 89 360 7.0 11.0 0.00 0.00 0.00 37 974.3
20260905094552 89 360 6.0 10.0 0.00 0.00 0.00 37 974.4
20260905094051 89 360 6.0 11.0 0.00 0.00 0.00 37 974.3
20260905093551 89 360 6.0 11.0 0.00 0.00 0.00 37 974.3
20260905093052 89 360 6.0 11.0 0.00 0.00 0.00 37 974.4
20260905092553 89 360 5.0 10.0 0.00 0.00 0.00 38 974.4
20260905092054 89 360 4.0 8.0 0.00 0.00 0.00 38 974.4
20260905091553 89 360 5.0 8.0 0.00 0.00 0.00 38 974.3
20260905091051 89 360 5.0 8.0 0.00 0.00 0.00 37 974.3
20260905090552 89 360 4.0 8.0 0.00 0.00 0.00 37 974.4
20260905090052 90 360 5.0 9.0 0.00 0.00 0.00 37 974.3
20260905085552 89 360 4.0 9.0 0.00 0.00 0.00 37 974.3
20260905085051 89 360 4.0 8.0 0.00 0.00 0.00 38 974.4
20260905084600 89 360 4.0 6.0 0.00 0.00 0.00 38 974.4
20260905084051 89 360 4.0 5.0 0.00 0.00 0.00 39 974.5
20260905083551 89 360 3.0 5.0 0.00 0.00 0.00 39 974.4
20260905083052 89 360 2.0 4.0 0.00 0.00 0.00 38 974.5
20260905082553 89 360 1.0 5.0 0.00 0.00 0.00 38 974.5
20260905082052 89 360 3.0 8.0 0.00 0.00 0.00 38 974.5
20260905081552 90 360 4.0 8.0 0.00 0.00 0.00 38 974.5
20260905081052 90 360 5.0 8.0 0.00 0.00 0.00 38 974.4
20260905080552 91 360 3.0 8.0 0.00 0.00 0.00 37 974.3
20260905080054 92 360 4.0 9.0 0.00 0.00 0.00 36 974.3
20260905075554 92 360 5.0 12.0 0.00 0.00 0.00 35 974.2
20260905075054 92 360 5.0 13.0 0.00 0.00 0.00 34 974.3
20260905074557 92 360 6.0 13.0 0.00 0.00 0.00 34 974.2
20260905074052 92 360 7.0 16.0 0.00 0.00 0.00 34 974.1
20260905073551 92 360 8.0 16.0 0.00 0.00 0.00 34 974.1
20260905073102 92 360 10.0 16.0 0.00 0.00 0.00 34 974.0
20260905072552 93 360 9.0 19.0 0.00 0.00 0.00 34 974.0
20260905072051 93 360 10.0 17.0 0.00 0.00 0.00 34 974.0
20260905071551 93 360 12.0 19.0 0.00 0.00 0.00 34 974.0
20260905071054 93 360 13.0 21.0 0.00 0.00 0.00 34 974.0
20260905070553 93 360 13.0 21.0 0.00 0.00 0.00 33 974.0
20260905070051 93 360 13.0 20.0 0.00 0.00 0.00 33 973.9
20260905065552 93 360 14.0 20.0 0.00 0.00 0.00 34 974.0
20260905065055 93 360 13.0 18.0 0.00 0.00 0.00 34 973.9
20260905064552 94 360 10.0 17.0 0.00 0.00 0.00 34 973.9
20260905064055 94 360 11.0 18.0 0.00 0.00 0.00 33 974.0
20260905063551 94 360 10.0 19.0 0.00 0.00 0.00 33 974.1
20260905063054 94 360 10.0 19.0 0.00 0.00 0.00 33 974.0
20260905062554 94 360 12.0 19.0 0.00 0.00 0.00 33 973.9
20260905062055 94 360 12.0 22.0 0.00 0.00 0.00 33 973.8
20260905061551 94 360 12.0 22.0 0.00 0.00 0.00 33 973.9
20260905061051 94 360 12.0 21.0 0.00 0.00 0.00 33 973.9
20260905060553 94 360 14.0 21.0 0.00 0.00 0.00 33 973.8
20260905060051 94 360 12.0 20.0 0.00 0.00 0.00 32 973.8
20260905055551 94 360 12.0 21.0 0.00 0.00 0.00 32 973.9
20260905055055 94 360 14.0 21.0 0.00 0.00 0.00 32 973.9
20260905054552 94 360 11.0 16.0 0.00 0.00 0.00 31 973.9
20260905054051 95 360 9.0 19.0 0.00 0.00 0.00 30 973.9
20260905053551 95 360 13.0 22.0 0.00 0.00 0.00 30 973.8
20260905053130 95 360 13.0 22.0 0.00 0.00 0.00 31 973.8
20260905052554 95 360 10.0 19.0 0.00 0.00 0.00 30 973.9
20260905052051 95 360 12.0 19.0 0.00 0.00 0.00 29 973.7
20260905051552 95 360 10.0 19.0 0.00 0.00 0.00 29 973.8
20260905051051 95 360 11.0 18.0 0.00 0.00 0.00 29 973.7
20260905050551 95 360 11.0 17.0 0.00 0.00 0.00 29 973.8
20260905050052 96 360 10.0 19.0 0.00 0.00 0.00 28 973.8
20260905045555 96 360 11.0 18.0 0.00 0.00 0.00 28 973.8
20260905045051 96 360 10.0 16.0 0.00 0.00 0.00 28 973.8
20260905044552 96 360 10.0 15.0 0.00 0.00 0.00 28 973.7
20260905044052 96 360 10.0 17.0 0.00 0.00 0.00 28 973.7
20260905043552 96 360 11.0 17.0 0.00 0.00 0.00 28 973.7
20260905043051 96 360 11.0 16.0 0.00 0.00 0.00 28 973.7
20260905042552 96 360 10.0 16.0 0.00 0.00 0.00 27 973.6
20260905042055 96 360 10.0 16.0 0.00 0.00 0.00 27 973.6
20260905041552 96 360 11.0 16.0 0.00 0.00 0.00 27 973.6
20260905041051 96 360 11.0 16.0 0.00 0.00 0.00 27 973.5
20260905040554 97 360 11.0 16.0 0.00 0.00 0.00 27 973.4
20260905040051 97 360 11.0 16.0 0.00 0.00 0.00 27 973.3
20260905035551 97 360 11.0 18.0 0.00 0.00 0.00 27 973.4
20260905035052 97 360 9.0 18.0 0.00 0.00 0.00 27 973.3
20260905034552 97 360 11.0 18.0 0.00 0.00 0.00 27 973.2
20260905034051 97 360 11.0 17.0 0.00 0.00 0.00 27 973.2
20260905033555 97 360 11.0 16.0 0.00 0.00 0.00 28 973.1
20260905033059 97 360 11.0 16.0 0.00 0.00 0.00 28 973.1
20260905032552 97 360 9.0 17.0 0.00 0.00 0.00 28 973.1
20260905032054 97 360 11.0 16.0 0.00 0.00 0.00 28 973.0
20260905031553 97 360 11.0 16.0 0.00 0.00 0.00 28 972.8
20260905031052 97 360 10.0 14.0 0.00 0.00 0.00 29 972.9
20260905030551 97 360 7.0 14.0 0.00 0.00 0.00 29 972.7
20260905030052 98 360 10.0 14.0 0.00 0.00 0.00 29 972.6
20260905025552 98 360 9.0 14.0 0.00 0.00 0.00 29 972.6